STARLINK-35332, 65887

Orbit data source: Space-Track

STARLINK-35332, 65887 is a payload satellite owned by SpaceX/Seattle (US) in LEO that was launched on Tue, 07 Oct 2025 UTC via an FALCON 9 launch vehicle from the Air Force Eastern Test Range (AFETR). Payload-class satellites include a variety of spacecraft equipped with specific instruments for various scientific and technological missions. These include communications satellites like Starlink; space stations such as the ISS; scientific satellites like the Hubble; Earth observation satellites from companies like Planet Labs, Umbra, and HawkEye 360; GPS; miniature CubeSats for education and research; and military/defense satellites.

Loading next visibility...
Identifier
65887, 2025-224F
Orbit
LEO
Country
Flag of USUS
Related business
Manufacturer
SpaceX/Seattle
Mission
Operational spacecraft
Bus & Motor
STARLINK V2MO, Unknown motor
Mass
575 kg wet, ~530 kg dry
Launch date (UTC)
2025-10-07 (1 month ago)
Launch vehicle
FALCON 9
Launch site
Air Force Eastern Test Range (AFETR)
Object type
Payload
Rocket body
Debris
Shape & HBR
Unknown shape, 17.7 m
Radar Cross Section
RCS unknown

Expand to show TLE details & history
Last TLE update: 2 days ago

TLE from 2 days ago
0 STARLINK-35332
1 65887U 25224F   25312.22055917  .00139840  00000-0  24711-2 0  9995
2 65887  53.1593 216.4978 0001236  71.5745 288.5398 15.49384318  6241
Epoch: 2025-11-08T05:17Z
TLE epoch observation values (Epoch: 2025-11-08T05:17:36.312Z)
Latitude
-0.00004°
Longitude
89.44317°
Altitude
419.166 km
Speed
7.661 km/s
True Right ascension
14h 25m 59s
True Declination
0° 00' 00"
Sunlit
Object was in daylight at epoch
Visualization orbit readout
Latitude
Unknown
Longitude
Unknown
Altitude
Unknown
Speed
Unknown
Apparent Right ascension
Unknown
Apparent Declination
Unknown
Sunlit
N/A
Visualization observer readout
Local Sidereal Time
04:01:52
Azimuth
Unknown
Elevation
Unknown
Doppler factor
Unknown
Orbital elements
Apogee altitude
419.625 km
Perigee altitude
417.945 km
Semi-major axis
6,796.922 km
Eccentricity
0.00012
Inclination
53.1593°
RAAN
216.4978°
Arg. of periapsis
71.5745°
True anomaly
288.52637°
Mean anomaly
288.5398°
Eccentric anomaly
288.53309°
Mean motion
3.87324 °/min
Orbital period
92.95 mins
BSTAR
0.0024711
Loading maneuver chart data...
Computing Atmospheric mass density...
Loading historical data...
Loading historical data...
Loading historical data...
Loading historical data...
Loading historical data...
Loading historical data...
Loading historical data...

Documentation

Showing up to 5 results
|